Погода в Петрозаводске

Погода в Петрозаводске : погода сейчас, прогноз погоды и архив. Всё, что Вы хотите узнать о погоде в Петрозаводске!

Хотите узнать прогноз погоды в Петрозаводске? Тогда Вам сюда: Погода в Петрозаводске

Поиск расширенной информации на нашем сайте:

Другие новости

Новости СМИ2

Главная страница сайта

Новости сайта

03.07.2017

Напоминаем, что на нашем специализированном сайте Метеоцентр.Азия вы можете получить высокодетализированные автоматические прогнозы погоды по пунктам России, СНГ и мира в авиационном формате (включающие направление и скорость ветра, видимость, явления погоды, количество и форму облачности, нижнюю и верхнюю границу облачности).

Рекомендуем: консультация юриста бесплатно круглосуточно консультация юриста бесплатно круглосуточно онлайн

Погода в Петрозаводске - сегодня

Время (UTC), дата Ветер
(°,м/с) 
Видим.   Явления Облачность Т
(°С)
Тd
(°С)
f(%) Тe
(°С)
Pmin
(гПа)
dP
(гПа)
Po
(мм)
O2
(г/м3)
Тmin Tmax R s Состояние
почвы
21 08.08.18 240 (ЮЗ) 20000 м    ясно 
+15.5 +12.3 81 +20  1018.9  0.9  754  285           
00 09.08.18 240 (ЮЗ) 20000 м    ясно 
+14.3 +10.9 80 +17  1020  1.1  755  287           
09 09.08.18 250 (З) 20000 м    4/0 верхняя 
[Ci fib]
+23.8 +9.8 41 +25  1020.1  0.1  756  278           
21 09.08.18 230 (ЮЗ) 4{10}  20000 м    4/0 средняя, верхняя 
[Ac trans|Ci fib]
+22.1 +13.2 57 +28  1018.2  0.1  754  279           
03 10.08.18 240 (ЮЗ) 4{10}  40000 м    6/1 600 м средняя, верхняя 
[Cu hum|Ac trans|Ci fib]
+20.7 +15.1 70 +29  1018.3  754  279  +20.6         
09 10.08.18 270 (З) 4{10}  20000 м    5/0 верхняя 
[Ci fib]
+28 +15.4 46 +37  1018.3  0.1  754  273           
21 10.08.18 230 (ЮЗ) 4{10}  20000 м    ясно 
+23.6 +13.1 52 +29  1015.9  -0.6  752  277           
21 11.08.18 240 (ЮЗ) 20000 м    6/0 средняя 
[Ac trans]
+17.8 +10.3 61 +20  1010.8  -0.9  748  281           
00 12.08.18 230 (ЮЗ) 20000 м    9/0 средняя 
[Ac As]
+17.4 +11.4 68 +21  1009.6  -1.1  748  281           
09 12.08.18 320 (СЗ) 10 км    10/6 600 м средняя 
[Sc|Ac As]
+15.7 +13.9 89 +24  1004.7  -2.1  744  281           
21 12.08.18 240 (ЮЗ) 10 км  слаб. дождь  10/10 600 м 
+13.1 +12.5 96 +18  997.3  -1.6  738  281           
09 13.08.18 260 (З) 20000 м    ясно 
+16.2 +12.2 77 +21  998.1  1.7  739  279           
15 13.08.18 240 (ЮЗ) 50000 м    8/4 600 м средняя 
[Sc|Ac trans]
+16.2 +8.3 59 +17  1000.7  1.6  741  280      0.4     
21 13.08.18 250 (З) 20000 м  {ливн. осадки}  4/3 300 м средняя 
[Sc|Ac trans]
+13.1 +10 81 +14  1002.4  0.6  742  283           
21 14.08.18 240 (ЮЗ) 10 км  {ливн. осадки}  10/8 600 м кучево-дожд., средняя 
[Cb calv|Ac trans]
+12.1 +11.1 94 +15  1011.9  0.5  749  287           
09 15.08.18 090 (В) 20000 м    8/4 600 м кучево-дожд., средняя 
[Cb calv|Ac trans]
+18.3 +10.1 59 +20  1011.4  749  281           
12 15.08.18 090 (В) 20000 м    8/3 600 м средняя, верхняя 
[Cu Sc|Ac trans|Ci fib]
+18.7 +8.2 50 +19  1011.3  0.1  749  281           
15 15.08.18 090 (В) 20000 м    6/3 600 м кучево-дожд., средняя, верхняя 
[Cb calv|Ac trans|Ci fib]
+17.3 +7.8 54 +18  1011.8  0.4  749  283           
21 15.08.18 270 (З) 20000 м    3/0 средняя 
[Ac trans]
+8.8 +7.9 94 +10  1013.6  750  291           
00 16.08.18 240 (ЮЗ) н/о    н/о 
+7.3 +6.8 97 +7  1015.2  1.5  751  294           
09 16.08.18 080 (В) 20000 м    5/4 600 м средняя 
[Cu med, cong|Ac lent]
+16.9 +10.5 66 +19  1019  1.3  755  284           
12 16.08.18 080 (В) 20000 м    4/3 600 м средняя 
[Cu med, cong|Ac lent]
+18.8 +7.6 48 +20  1019.7  0.8  755  283           
15 16.08.18 100 (В) 20000 м    4/3 600 м средняя 
[Sc diur, vesp|Ac trans]
+18 +7.9 52 +19  1020.2  0.5  755  284           
21 16.08.18 210 (ЮЗ) 20000 м    ясно 
+14.1 +7.2 63 +14  1021.7  0.6  756  289           
00 17.08.18 220 (ЮЗ) 20000 м    ясно 
+12.5 +8.6 77 +13  1022.6  0.8  757  290           
Время (UTC), дата Ветер
(°,м/с) 
Видим.   Явления Облачность Т
(°С)
Тd
(°С)
f(%) Тe
(°С)
Pmin
(гПа)
dP
(гПа)
Po
(мм)
O2
(г/м3)
Тmin Tmax R s Состояние
почвы

Для получения пояснительной информации подведите курсор к названию столбца.

ПОГОДА в Петрозаводске - архив

Всё, что Вы хотите узнать о погоде в Петрозаводске - удобно и подробно!

Выберите нужную дату (начиная с 1 января 2015* года) и нажмите кнопку "Найти".
Будут отображены архивные сводки погоды по пункту Петрозаводск, начиная с указанной даты.


Отображать данные в формате CSV (для использования в таблицах Excel)


Внимание! Наш архив погоды предназначен исключительно для личного некоммерческого использования в познавательных целях. Если Вам необходимы официальные справки о состоянии погоды (для производственных, юридических, коммерческих и т.п. целей), обращайтесь в органы Росгидромета.

*Примечание: данная дата относится к архиву по метеостанциям СССР (Россия, СНГ, Балтия).
Архив по метеостанциям Зарубежной Европы и Азии (кроме Китая) хранится 10 дней, по другим регионам земного шара (Китай, Африка, Америка, Австралия, Океания) - 1 день.

Петрозаводск - район местоположения метеостанции


Название, широта, долгота, высота метеостанции:
Петрозаводск 61.8°ш. 34.3°д. 110 м над ур. моря [Российская Федерация]

Дополнительная информация

В oтличие oт бoльшинства пoгoдных сайтoв мы публикуем пoдрoбную метеoинфoрмацию в детальнoм прoфессиoнальнoм фoрмате.

Характеристики температуры и влажнoсти вoздуха измеряются на высoте 2 м в тени вдали oт зданий и деревьев.
Скoрoсть ветра измеряется на высoте 10 м (на урoвне рoста челoвека скoрoсть ветра ниже в 1.5-2 раза). Если метеoстанция нахoдится в гoрoде или в лесу, тo скoрoсть ветра занижена на 2-4 м/с пo сравнению с oткрытым местoм. Скoрoсть ветра над акватoриями крупных рек и oзёр, а также на вершинах хoлмoв на 2-5 м/с выше, чем в oбычных услoвиях.
Атмoсфернoе давление в разных тoчках местнoсти мoжет значительнo oтличаться oт давления на метеoстанции, в зависимoсти oт услoвий рельефа (при пoдъёме на 10 м давление пoнижается примернo на 1 мм рт.ст.).